User: anonymous   Login
Location: Unspecified
(0.0000°N, 0.0000°E)
Time: 20:13:25
(UTC+02:00)
Language:

Transit 2A - Orbit

View from above orbital plane
View from above orbital plane
View from above satellite
View from above satellite

Ground track
Ground track

The orbit data is extracted from the following two-line orbital elements,

1 00045U 60007A   14297.49310875  .00000243  00000-0  88467-4 0  2700
2 00045 066.6969 056.0547 0255538 015.3531 052.3729 14.33090033827029
Epoch (UTC): 24 October 2014 11:50:04
Eccentricity: 0.0255538
inclination: 66.6969°
perigee height: 598 km
apogee height: 964 km
right ascension of ascending node: 56.0547°
argument of perigee: 15.3531°
revolutions per day: 14.33090033
mean anomaly at epoch: 52.3729°
orbit number at epoch: 82702

The dashed part of the orbit path shows where the satellite is in the earth's shadow,  

DLR